Weather History for Camdenton, MO

Change the Weather History Date:

Thursday, July 4, 2013

  Actual Average (KAIZ) Record (KAIZ)
Temperature  
Mean Temperature 70 °F -  
Max Temperature 84 °F 84 °F 102 °F (2012)
Min Temperature 55 °F 65 °F 53 °F (2014)
Cooling Degree Days 4    
Growing Degree Days 20 (Base 50)    
Moisture  
Dew Point 57 °F    
Average Humidity 68    
Maximum Humidity 100    
Minimum Humidity 35    
Precipitation  
Precipitation 0.01 in - - ()
Sea Level Pressure  
Sea Level Pressure 30.06 in    
Wind  
Wind Speed 4 mph (South)    
Max Wind Speed 9 mph    
Max Gust Speed -    
Visibility 10 miles    
Events Rain , Thunderstorm    
Averages and records for this station are not official NWS values.
T = Trace of Precipitation, MM = Missing Value Source: NWS Daily Summary

Daily Weather History Graph

Daily Weather History Graph

Search for Another Location

Airport:

Trip Planner

Search our weather history database for the weather conditions in past years. The results will help you decide how hot, cold, wet, or windy it might be!

Date:

Astronomy

Jul. 04, 2013 Rise Set
Actual Time 5:53 AM CDT 8:36 PM CDT
Civil Twilight 5:22 AM CDT 9:07 PM CDT
Nautical Twilight 4:43 AM CDT 9:46 PM CDT
Astronomical Twilight 3:59 AM CDT 10:30 PM CDT
Moon 3:09 AM CDT (7/4) 5:42 PM CDT (7/4)
Length of Visible Light 15h 45m
Length of Day
14h 43m
Waning Crescent, 11% of the Moon is Illuminated
Jul 4
Waning Crescent
Jul 8
New
Jul 15
First Quarter
Jul 22
Full
Jul 29
Last Quarter

Hourly Weather History & Observations

Time (CDT) Temp. Heat Index Dew Point Humidity Pressure Visibility Wind Dir Wind Speed Gust Speed Precip Events Conditions
12:15 AM 64.4 °F - 55.4 °F 73% 30.08 in 10.0 mi South 3.5 mph - N/A   Clear
12:35 AM 62.6 °F - 55.4 °F 77% 30.08 in 10.0 mi SE 3.5 mph - N/A   Clear
12:55 AM 64.4 °F - 55.4 °F 73% 30.08 in 10.0 mi WSW 4.6 mph - N/A   Clear
1:15 AM 62.6 °F - 55.4 °F 77% 30.08 in 10.0 mi WSW 5.8 mph - N/A   Clear
1:35 AM 62.6 °F - 55.4 °F 77% 30.07 in 10.0 mi SW 3.5 mph - N/A   Clear
1:55 AM 60.8 °F - 57.2 °F 88% 30.07 in 10.0 mi SE 5.8 mph - N/A   Clear
2:15 AM 60.8 °F - 57.2 °F 88% 30.07 in 10.0 mi South 5.8 mph - N/A   Clear
2:35 AM 60.8 °F - 57.2 °F 88% 30.07 in 10.0 mi Calm Calm - N/A   Clear
2:55 AM 60.8 °F - 55.4 °F 82% 30.07 in 10.0 mi SSW 3.5 mph - N/A   Clear
3:15 AM 62.6 °F - 55.4 °F 77% 30.06 in 10.0 mi SW 5.8 mph - N/A   Scattered Clouds
3:35 AM 59.0 °F - 55.4 °F 88% 30.07 in 10.0 mi ESE 4.6 mph - N/A   Mostly Cloudy
3:55 AM 57.2 °F - 55.4 °F 94% 30.06 in 10.0 mi ESE 3.5 mph - N/A   Mostly Cloudy
4:15 AM 55.4 °F - 55.4 °F 100% 30.06 in 7.0 mi ESE 3.5 mph - N/A   Scattered Clouds
4:35 AM 57.2 °F - 55.4 °F 94% 30.06 in 10.0 mi SE 4.6 mph - N/A   Clear
4:55 AM 59.0 °F - 55.4 °F 88% 30.06 in 10.0 mi SE 4.6 mph - N/A   Clear
5:15 AM 57.2 °F - 55.4 °F 94% 30.06 in 10.0 mi SE 4.6 mph - N/A   Clear
5:35 AM 55.4 °F - 55.4 °F 100% 30.06 in 10.0 mi ESE 4.6 mph - N/A   Clear
5:55 AM 57.2 °F - 55.4 °F 94% 30.07 in 10.0 mi East 4.6 mph - N/A   Scattered Clouds
6:15 AM 57.2 °F - 55.4 °F 94% 30.07 in 10.0 mi SE 5.8 mph - N/A   Scattered Clouds
6:35 AM 59.0 °F - 57.2 °F 94% 30.07 in 10.0 mi SE 6.9 mph - N/A   Clear
6:55 AM 62.6 °F - 57.2 °F 82% 30.08 in 10.0 mi SSE 6.9 mph - N/A   Clear
7:15 AM 64.4 °F - 57.2 °F 77% 30.08 in 10.0 mi SSE 6.9 mph - N/A   Clear
7:35 AM 66.2 °F - 57.2 °F 73% 30.09 in 10.0 mi SSE 5.8 mph - N/A   Scattered Clouds
7:55 AM 68.0 °F - 55.4 °F 64% 30.09 in 10.0 mi South 4.6 mph - N/A   Scattered Clouds
8:15 AM 69.8 °F - 55.4 °F 60% 30.09 in 10.0 mi South 5.8 mph - N/A   Scattered Clouds
8:35 AM 71.6 °F - 55.4 °F 57% 30.09 in 10.0 mi SSW 5.8 mph - N/A   Scattered Clouds
8:55 AM 73.4 °F - 57.2 °F 57% 30.09 in 10.0 mi South 5.8 mph - N/A   Clear
9:15 AM 73.4 °F - 55.4 °F 53% 30.10 in 10.0 mi South 5.8 mph - N/A   Scattered Clouds
9:35 AM 75.2 °F - 55.4 °F 50% 30.09 in 10.0 mi SSW 4.6 mph - N/A   Clear
9:55 AM 77.0 °F - 57.2 °F 50% 30.09 in 10.0 mi SSW 4.6 mph - N/A   Clear
10:15 AM 77.0 °F - 59.0 °F 54% 30.09 in 10.0 mi South 4.6 mph - N/A   Clear
10:35 AM 77.0 °F - 59.0 °F 54% 30.09 in 10.0 mi South 3.5 mph - N/A   Clear
10:55 AM 78.8 °F - 59.0 °F 51% 30.10 in 10.0 mi South 4.6 mph - N/A   Clear
11:15 AM 78.8 °F - 59.0 °F 51% 30.09 in 10.0 mi SW 4.6 mph - N/A   Clear
11:35 AM 78.8 °F - 59.0 °F 51% 30.09 in 10.0 mi Calm Calm - N/A   Clear
11:55 AM 80.6 °F 80.5 °F 55.4 °F 42% 30.09 in 10.0 mi WSW 6.9 mph - N/A   Clear
12:15 PM 82.4 °F 81.4 °F 53.6 °F 37% 30.09 in 10.0 mi SSW 9.2 mph - N/A   Clear
12:35 PM 80.6 °F 80.5 °F 55.4 °F 42% 30.09 in 10.0 mi South 5.8 mph - N/A   Clear
12:55 PM 80.6 °F 80.5 °F 55.4 °F 42% 30.08 in 10.0 mi West 6.9 mph - N/A   Scattered Clouds
1:15 PM 80.6 °F 80.5 °F 55.4 °F 42% 30.08 in 10.0 mi SSW 4.6 mph - N/A   Mostly Cloudy
1:35 PM 80.6 °F 80.5 °F 55.4 °F 42% 30.07 in 10.0 mi Calm Calm - N/A   Scattered Clouds
1:55 PM 80.6 °F 80.3 °F 53.6 °F 39% 30.07 in 10.0 mi West 3.5 mph - N/A   Mostly Cloudy
2:15 PM 80.6 °F - 51.8 °F 37% 30.06 in 10.0 mi WSW 3.5 mph - N/A   Mostly Cloudy
2:35 PM 80.6 °F - 51.8 °F 37% 30.05 in 10.0 mi Calm Calm - N/A   Mostly Cloudy
2:55 PM 82.4 °F - 51.8 °F 35% 30.05 in 10.0 mi East 5.8 mph - N/A   Scattered Clouds
3:15 PM 82.4 °F - 51.8 °F 35% 30.04 in 10.0 mi WSW 3.5 mph - N/A   Clear
3:35 PM 84.2 °F 82.8 °F 53.6 °F 35% 30.04 in 10.0 mi WSW 5.8 mph - N/A   Scattered Clouds
3:55 PM 82.4 °F - 51.8 °F 35% 30.04 in 10.0 mi Calm Calm - N/A   Mostly Cloudy
4:15 PM 84.2 °F 83.0 °F 55.4 °F 37% 30.04 in 10.0 mi ENE 4.6 mph - N/A   Mostly Cloudy
4:35 PM 80.6 °F 81.1 °F 59.0 °F 48% 30.03 in 10.0 mi Calm Calm - N/A   Overcast
4:55 PM 77.0 °F - 59.0 °F 54% 30.04 in 1.0 mi East 5.8 mph - N/A Thunderstorm Unknown
5:15 PM 73.4 °F - 59.0 °F 61% 30.04 in 10.0 mi NNW 5.8 mph - N/A Rain , Thunderstorm Rain
5:35 PM 68.0 °F - 55.4 °F 64% 30.02 in 10.0 mi NW 3.5 mph - 0.01 in Rain , Thunderstorm Light Thunderstorms and Rain
5:55 PM 68.0 °F - 53.6 °F 60% 30.03 in 10.0 mi NW 6.9 mph - 0.01 in Thunderstorm Thunderstorm
6:15 PM 66.2 °F - 59.0 °F 78% 30.02 in 10.0 mi WNW 8.1 mph - N/A Rain Light Rain
6:35 PM 69.8 °F - 59.0 °F 68% 30.02 in 10.0 mi NNW 3.5 mph - N/A Thunderstorm Scattered Clouds
6:55 PM 71.6 °F - 60.8 °F 69% 30.02 in 10.0 mi Calm Calm - N/A   Clear
7:15 PM 69.8 °F - 62.6 °F 78% 30.02 in 10.0 mi Calm Calm - N/A   Clear
7:35 PM 71.6 °F - 60.8 °F 69% 30.04 in 10.0 mi Calm Calm - N/A   Scattered Clouds
7:55 PM 69.8 °F - 64.4 °F 83% 30.03 in 10.0 mi Calm Calm - N/A   Scattered Clouds
8:15 PM 69.8 °F - 66.2 °F 88% 30.03 in 10.0 mi Calm Calm - N/A Rain Light Rain
8:35 PM 69.8 °F - 66.2 °F 88% 30.03 in 10.0 mi SE 4.6 mph - N/A   Scattered Clouds
8:55 PM 68.0 °F - 62.6 °F 83% 30.03 in 10.0 mi SSE 5.8 mph - N/A Rain Light Rain
9:15 PM 68.0 °F - 62.6 °F 83% 30.03 in 10.0 mi East 3.5 mph - N/A Rain Light Rain
9:35 PM 68.0 °F - 62.6 °F 83% 30.04 in 10.0 mi ESE 6.9 mph - N/A   Clear
9:55 PM 68.0 °F - 62.6 °F 83% 30.04 in 10.0 mi ESE 3.5 mph - N/A   Clear
10:15 PM 66.2 °F - 62.6 °F 88% 30.05 in 10.0 mi SE 4.6 mph - N/A   Clear
10:35 PM 66.2 °F - 60.8 °F 83% 30.05 in 10.0 mi SE 5.8 mph - N/A   Clear
10:55 PM 66.2 °F - 60.8 °F 83% 30.05 in 10.0 mi ESE 3.5 mph - N/A   Clear
11:15 PM 66.2 °F - 60.8 °F 83% 30.05 in 10.0 mi SE 3.5 mph - N/A   Clear
11:35 PM 66.2 °F - 60.8 °F 83% 30.05 in 10.0 mi SSE 4.6 mph - N/A   Clear
11:55 PM 64.4 °F - 60.8 °F 88% 30.04 in 10.0 mi SE 3.5 mph - N/A   Clear